Location: Hillern
(53.0557°N, 9.8577°E)
Time: 00:04:52
(UTC+00:00)

Helios 1A - Pass Details

Date: 19 May 2025
Orbit: 544 x 570 km, 98.3° (Epoch: 03 June)

Event Time Altitude Azimuth Distance (km) Brightness Sun altitude
Rises 20:40:43 0° 10° (N) 2,791 7.1 -9.5°
Reaches altitude 10° 20:42:56 10° 5° (N) 1,887 6.3 -9.7°
Maximum altitude 20:46:49 45° 293° (WNW) 790 4.1 -10.1°
Drops below altitude 10° 20:50:40 10° 220° (SW) 1,862 5.4 -10.4°
Sets 20:52:51 0° 214° (SW) 2,750 6.2 -10.6°
